Location: Engle Ridge Observatory
(44.8122°N, 85.4398°W)
Time: 11:12:24
(UTC-04:00)

Daily predictions for brighter satellites

Satellite Brightness Start Highest point End
(mag) Time Altitude Azimuth Time Altitude Azimuth Time Altitude Azimuth
Meteor 2-21 Rocket 4.5 20:46:13 10° S 20:52:24 79° E 20:58:36 10° N
ERS-1 Rocket 4.1 20:49:44 10° ESE 20:53:50 26° ENE 20:57:56 10° N
Cosmos 1461 2.9 20:50:20 10° NW 20:54:26 84° SW 20:58:22 10° SSE
DELTA 2 R/B (1) 4.2 20:50:34 10° W 20:55:55 47° S 21:01:13 10° ESE
Cosmos 1346 Rocket 2.7 20:52:03 10° N 20:56:00 74° E 20:59:58 10° SSE
Cosmos 2082 3.7 20:51:21 10° NNW 20:57:00 75° ENE 21:02:37 10° SSE
Cosmos 2297 Rocket 2.4 20:51:34 10° NNW 20:57:11 60° ENE 21:02:46 10° SE
Meteor 1-5 Rocket 4.1 20:54:08 10° S 20:59:28 74° E 21:04:58 10° NNE
NOSS 2-1 (E) 3.9 20:56:17 10° SW 21:00:14 68° NW 21:04:55 10° NE
Cosmos 1025 Rocket 4.4 20:56:15 10° NNW 21:00:25 44° W 21:04:32 10° SSW
Meteor 2-15 4.5 20:54:32 10° N 21:00:39 88° E 21:06:41 10° S
Cosmos 1898 Rocket 4.2 20:57:28 10° N 21:02:25 38° ENE 21:07:18 10° SE
H-2A R/B 3.8 21:04:02 10° E 21:06:29 16° ENE 21:08:58 10° NNE
Cosmos 1536 4.4 21:02:45 10° SSW 21:06:33 41° WNW 21:10:24 10° N
Meteor 2-15 Rocket 4.4 21:00:42 10° N 21:06:48 84° E 21:12:52 10° S
Cosmos 1626 Rocket 3.9 21:02:52 10° N 21:07:09 47° ENE 21:11:22 10° SSE
Cosmos 1892 Rocket 4.2 21:03:10 10° NNW 21:07:37 61° W 21:12:01 10° S
ATLAS CENTAUR R/B 4.3 21:05:32 10° W 21:09:33 24° NW 21:13:29 10° NNE
Meteor 1-29 4.4 21:08:36 10° N 21:11:55 43° WNW 21:15:13 10° SW
Cosmos 1515 4.3 21:09:07 10° N 21:12:43 36° ENE 21:16:17 10° SE
Cosmos 1455 Rocket 3.0 21:09:06 10° S 21:13:26 90° SSW 21:17:50 10° N
Cosmos 2123 Rocket 4.0 21:09:34 10° N 21:15:47 88° W 21:21:58 10° S
Cosmos 1602 Rocket 3.7 21:12:03 10° N 21:16:29 60° ENE 21:20:52 10° SSE
RESURS DK-1 3.4 21:13:41 10° N 21:17:25 31° NE 21:20:28 14° ESE
Cosmos 2084 3.5 21:16:19 10° NNW 21:20:19 63° NE 21:23:56 14° SE
USA 215 4.4 21:17:19 10° ENE 21:23:05 34° NNE 21:28:50 10° NW
CZ-4 DEB 3.2 21:22:57 13° SE 21:25:27 40° ENE 21:28:26 10° N
Cosmos 220 Rocket 3.9 21:23:10 10° NNW 21:27:25 88° ENE 21:31:38 10° SSE
Cosmos 1743 4.0 21:26:38 15° SE 21:28:45 22° E 21:31:51 10° NE
Cosmos 1459 Rocket 4.5 21:23:41 10° SSE 21:29:07 36° E 21:34:38 10° NNE
Cosmos 1066 Rocket 4.4 21:26:58 10° N 21:32:33 57° ENE 21:38:13 10° SSE
SL-24 R/B - RUBIN 2 4.4 21:27:03 10° SSW 21:32:50 62° ESE 21:39:16 10° NE
Cosmos 1697 Rocket 2.9 21:30:13 10° S 21:35:34 46° ESE 21:40:57 10° NE
Cosmos 2278 4.3 21:37:28 10° SW 21:43:06 62° WNW 21:48:46 10° NNE
SL-16 R/B 4.2 21:46:17 10° ENE 21:46:17 10° ENE 21:46:33 10° ENE
Resurs 01 Rocket 4.4 21:41:31 10° SW 21:44:39 19° W 21:47:47 10° NW
Cosmos 858 Rocket 4.5 21:40:23 10° NNW 21:45:42 77° ENE 21:49:56 16° SSE
Cosmos 1153 Rocket 4.4 21:41:30 10° S 21:47:41 85° E 21:53:51 10° N
ALOS 3.8 21:45:16 10° SSW 21:49:34 37° W 21:53:55 10° NNW
ASTEX 1 4.3 21:46:29 10° NNE 21:50:52 30° E 21:52:42 23° ESE
Cosmos 1606 Rocket 4.3 21:50:20 24° SE 21:52:06 32° E 21:56:05 10° NNE
H-2A R/B 4.5 21:49:09 10° SSW 21:52:42 33° W 21:56:19 10° NNW
Cosmos 1975 3.3 21:49:11 10° SSW 21:53:15 65° W 21:57:21 10° N
ARGOS 4.3 21:53:32 21° E 21:55:44 27° ENE 22:00:12 10° N
USA 186 3.9 21:54:40 10° SSW 21:57:16 24° W 21:59:43 10° NW
Cosmos 1980 Rocket 2.5 21:53:19 10° S 21:58:38 43° ESE 22:04:00 10° NE
Lacrosse 5 rocket 2.9 21:56:25 10° WNW 21:59:24 23° SW 22:01:42 13° S
Cosmos 2298 Rocket 4.3 21:54:16 10° NNW 21:59:33 69° WSW 22:04:08 14° S
Cosmos 1802 Rocket 4.1 21:56:50 10° S 22:03:04 58° E 22:09:23 10° NNE
Envisat 2.9 22:00:26 18° SSE 22:04:12 82° ENE 22:09:18 10° NNW
Iridium 4 Rocket 3.9 22:00:37 10° N 22:05:38 58° W 22:10:12 10° SSW
Cosmos 1937 Rocket 3.5 22:00:34 10° NNW 22:05:52 90° W 22:09:16 23° SSE
MetOp-B 4.3 22:07:39 28° SE 22:10:14 53° ENE 22:15:27 10° N
Cosmos 1726 Rocket 3.7 22:14:23 39° SE 22:15:30 48° E 22:19:45 10° NNE
Cosmos 1666 3.6 22:16:27 32° ENE 22:16:27 32° ENE 22:19:16 10° NNE
Cosmos 2016 Rocket 4.0 22:11:10 16° SSE 22:15:58 61° E 22:22:04 10° NNE
Cosmos 990 Rocket 3.9 22:13:04 10° NNW 22:18:23 86° ENE 22:20:53 32° SSE
H-2A R/B 3.4 22:17:51 21° ENE 22:18:35 21° ENE 22:22:15 10° NNE
Tiangong 1 1.9 22:16:47 10° W 22:19:21 39° SW 22:19:21 39° SW
CZ-4B R/B 4.5 22:17:52 10° NE 22:21:04 26° ENE 22:21:04 26° ENE
Cosmos 1656 4.3 22:18:04 10° SW 22:23:35 57° WNW 22:29:04 10° NNE
Cosmos 2263 Rocket 3.5 22:19:16 10° N 22:23:51 25° NE 22:25:29 22° ENE
Cosmos 2227 Rocket 4.4 22:21:20 10° NW 22:25:26 21° W 22:29:30 10° SSW
Cosmos 1825 Rocket 3.7 22:23:14 10° NNW 22:27:40 72° W 22:29:38 32° S
Cosmos 2173 Rocket 4.1 22:22:01 10° S 22:28:24 82° W 22:34:46 10° N
Cosmos 1939 Rocket 3.8 22:25:54 20° SSW 22:28:26 47° W 22:32:29 10° NNW
Cosmos 2322 Rocket 3.1 22:32:37 29° E 22:32:37 29° E 22:36:24 10° NE
ERS-1 Rocket 4.0 22:28:09 13° SSW 22:32:23 43° W 22:37:10 10° NNW
Meteor 1-21 4.3 22:27:01 10° NNW 22:32:48 83° W 22:35:57 29° S
Cosmos 2098 Rocket 4.0 22:29:39 25° SSE 22:33:42 63° E 22:39:21 10° NNE
BREEZE-M DEB (TANK) 4.1 22:29:47 10° WNW 22:33:45 87° SSW 22:39:15 30° ESE
SL-08 RB Rocket 4.2 22:33:41 41° E 22:34:07 42° ENE 22:38:30 10° N
Lacrosse 5 2.4 22:29:36 10° WNW 22:34:29 49° SW 22:36:04 36° S
Cosmos 1340 3.0 22:32:15 10° NNW 22:36:00 62° W 22:36:49 47° SSW
SPOT 1/Viking Rocket 3.6 22:36:07 46° SE 22:37:27 63° ENE 22:42:36 10° N
Cosmos 1953 Rocket 3.6 22:33:30 10° NNW 22:37:58 77° W 22:39:18 45° S
YAOGAN 6 2.5 22:38:50 85° S 22:38:56 88° W 22:42:40 10° NNW
Cosmos 967 Rocket 4.5 22:34:16 10° NW 22:40:37 78° WSW 22:43:06 39° SSE
Cosmos 2297 Rocket 4.3 22:36:32 10° NW 22:40:45 22° W 22:44:56 10° SSW
SPOT 5 3.0 22:39:47 36° S 22:41:47 72° WSW 22:46:36 10° NNW
H-2A R/B 2.5 22:40:47 37° SSW 22:42:05 53° W 22:46:09 10° NNW
Cosmos 2100 Rocket 4.5 22:36:00 10° SSW 22:42:11 60° WNW 22:48:21 10° N
Cosmos 2360 4.1 22:38:33 17° SSW 22:42:57 70° ESE 22:48:41 10° NNE
Meteor 2-9 Rocket 4.0 22:41:32 44° SSE 22:43:09 66° E 22:48:31 10° NNE
Cosmos 1864 Rocket 4.4 22:41:44 39° SSE 22:44:02 66° E 22:50:06 10° NNE
USA 245 4.4 22:41:37 40° SSE 22:44:05 79° ENE 22:50:26 10° N
PSLV R/B 4.3 22:45:36 42° NNW 22:45:36 42° NNW 22:47:46 10° NNW
Cosmos 1763 Rocket 3.3 22:41:43 16° SSW 22:45:47 88° WNW 22:50:53 10° NNE
Cosmos 2227 4.3 22:42:24 10° NNW 22:48:09 72° WSW 22:50:02 43° S
Tsikada Rocket 4.0 22:42:42 10° N 22:49:11 78° E 22:51:23 44° SSE
Cosmos 1125 Rocket 3.4 22:45:40 10° NNW 22:50:53 70° ENE 22:51:36 61° ESE
Cosmos 405 Rocket 4.0 22:47:44 10° N 22:50:05 29° NNE 22:50:05 29° NNE
Cosmos 2228 3.3 22:54:36 54° NE 22:54:36 54° NE 22:58:06 10° NNE
RESURS DK-1 4.0 22:51:54 10° NW 22:55:23 26° WSW 22:56:25 24° SW
Landsat 7 4.2 22:55:38 48° ENE 22:55:38 48° ENE 23:00:06 10° N
MetOp-A 4.5 22:54:40 36° SSW 22:56:42 61° WSW 23:02:01 10° NNW
Cosmos 1758 Rocket 4.0 22:52:26 10° NNW 22:56:43 55° W 22:57:29 48° SW
deb Chang Zheng 4 4.5 22:53:31 10° N 22:57:50 49° WNW 23:00:40 20° SW
CZ-4C R/B 4.4 23:00:05 40° NE 23:00:05 40° NE 23:03:37 10° N
USA 215 3.4 23:03:14 43° E 23:05:27 67° NNE 23:11:56 10° NW
Cosmos 841 Rocket 3.8 23:04:54 21° SW 23:08:23 65° WNW 23:13:35 10° NNE
Cosmos 1816 Rocket 4.4 23:04:21 10° N 23:10:47 88° E 23:12:13 57° S
Terra 2.4 23:11:26 45° NE 23:11:26 45° NE 23:15:25 10° N
CZ-4 R/B 4.2 23:07:15 10° NNE 23:10:58 51° NE 23:10:58 51° NE
BREEZE-M DEB (TANK) 3.8 23:10:04 10° WNW 23:11:27 29° W 23:11:27 29° W
Cosmos 1725 Rocket 4.1 23:12:55 35° SSW 23:15:39 72° W 23:21:55 10° N
SL-19 R/B 4.2 23:11:35 10° NNE 23:17:05 74° WNW 23:18:28 50° SW
Cosmos 1697 Rocket 4.5 23:14:46 10° WSW 23:19:44 31° NW 23:24:43 10° N
Meteor 2-17 Rocket 4.3 23:20:18 70° SSE 23:21:01 83° E 23:27:06 10° N
Cosmos 2058 Rocket 4.1 23:22:16 38° WSW 23:23:08 43° WNW 23:27:27 10° N
Cosmos 540 Rocket 4.0 23:25:34 48° NE 23:25:34 48° NE 23:29:21 10° NNE
SL-16 R/B 2.1 23:28:05 77° ENE 23:28:05 77° ENE 23:33:25 10° NNE
ARGOS 3.8 23:35:03 43° WSW 23:35:43 46° W 23:40:54 10° NNW
Cosmos 372 Rocket 4.1 23:30:39 10° NNW 23:35:15 69° NW 23:35:15 69° NW
Cosmos 1844 Rocket 4.3 23:31:52 10° N 23:36:12 23° NE 23:36:28 22° NE
BREEZE-M DEB (TANK) 3.3 23:30:26 10° WSW 23:38:01 63° W 23:38:01 63° W
Cosmos 2233 Rocket 4.0 23:39:50 64° SW 23:40:43 74° W 23:46:59 10° N
Cosmos 1980 Rocket 3.8 23:37:41 10° WSW 23:42:46 33° NW 23:47:53 10° N
Cosmos 2360 Rocket 3.7 23:45:50 25° NE 23:45:50 25° NE 23:48:20 10° NE
